Location: Newark
(51.7378°N, 19.8125°E)
Time: 22:45:58
(UTC+00:00)

Envisat - Pass Details

Date: 10 December 2019
Orbit: 764 x 766 km, 98.1° (Epoch: 21 January)

Event Time Altitude Azimuth Distance (km) Brightness Sun altitude
Rises 04:37:30 0° 22° (NNE) 3,247 6.3 -17.1°
Reaches altitude 10° 04:40:11 10° 35° (NE) 2,315 5.7 -16.7°
Maximum altitude 04:44:28 27° 92° (E) 1,458 5.3 -16.1°
Drops below altitude 10° 04:48:43 10° 149° (SSE) 2,299 6.2 -15.5°
Sets 04:51:21 0° 162° (SSE) 3,220 6.8 -15.1°
